RYR31X EGCC-EGKK

Flight info

Callsign RYR31X
Flight time 0h 34m
Altitude 19000
Route LISTO L612 HON N859 KIDLI
Aircraft B739/M-SDE2E3FGHIRWXY/LB1

Departure

Time 2026-05-06 09:19
Airport Manchester Airport (EGCC)

Arrival

Time 2026-05-06 09:53
Airport London Gatwick Airport (EGKK)
Time Latitude Longitude Altitude Speed Heading
2026-05-06 08:57 53.35929 -2.26988 243 ft 0 kts 279°
2026-05-06 09:10 53.35929 -2.26980 243 ft 1 kts 279°
2026-05-06 09:10 53.35927 -2.26962 244 ft 1 kts 279°
2026-05-06 09:10 53.35925 -2.26945 244 ft 1 kts 279°
2026-05-06 09:10 53.35924 -2.26928 244 ft 1 kts 265°
2026-05-06 09:11 53.35925 -2.26911 244 ft 1 kts 264°
2026-05-06 09:11 53.35926 -2.26893 245 ft 1 kts 274°
2026-05-06 09:11 53.35925 -2.26876 245 ft 1 kts 239°
2026-05-06 09:11 53.35932 -2.26866 245 ft 1 kts 159°
2026-05-06 09:12 53.35939 -2.26870 245 ft 0 kts 130°
2026-05-06 09:12 53.35938 -2.26869 243 ft 0 kts 130°
2026-05-06 09:13 53.35925 -2.26838 244 ft 0 kts 114°
2026-05-06 09:14 53.35902 -2.26821 246 ft 9 kts 177°
2026-05-06 09:14 53.35854 -2.26901 245 ft 15 kts 237°
2026-05-06 09:14 53.35764 -2.27151 244 ft 27 kts 236°
2026-05-06 09:15 53.35651 -2.27396 239 ft 26 kts 231°
2026-05-06 09:15 53.35540 -2.27623 239 ft 24 kts 231°
2026-05-06 09:15 53.35460 -2.27855 238 ft 23 kts 261°
2026-05-06 09:15 53.35369 -2.28063 235 ft 22 kts 226°
2026-05-06 09:16 53.35259 -2.28243 227 ft 22 kts 224°
2026-05-06 09:16 53.35161 -2.28433 225 ft 22 kts 232°
2026-05-06 09:16 53.35070 -2.28628 226 ft 21 kts 232°
2026-05-06 09:16 53.34975 -2.28811 223 ft 20 kts 226°
2026-05-06 09:17 53.34878 -2.28978 219 ft 21 kts 225°
2026-05-06 09:17 53.34778 -2.29171 215 ft 21 kts 231°
2026-05-06 09:17 53.34685 -2.29322 215 ft 0 kts 206°
2026-05-06 09:18 53.34683 -2.29324 214 ft 6 kts 206°
2026-05-06 09:18 53.34536 -2.29272 220 ft 14 kts 101°
2026-05-06 09:18 53.34581 -2.29133 213 ft 15 kts 52°
2026-05-06 09:18 53.34823 -2.28617 227 ft 101 kts 52°
2026-05-06 09:19 53.35424 -2.27351 296 ft 171 kts 51°
2026-05-06 09:19 53.36193 -2.25716 1295 ft 174 kts 52°
2026-05-06 09:19 53.36922 -2.24237 2805 ft 156 kts 50°
2026-05-06 09:19 53.37348 -2.23312 3635 ft 149 kts 62°
2026-05-06 09:20 53.37549 -2.21655 4511 ft 152 kts 90°
2026-05-06 09:20 53.37186 -2.19898 4966 ft 170 kts 119°
2026-05-06 09:20 53.36215 -2.18382 5028 ft 213 kts 145°
2026-05-06 09:20 53.34837 -2.17195 4954 ft 230 kts 163°
2026-05-06 09:21 53.33289 -2.16886 5271 ft 224 kts 181°
2026-05-06 09:21 53.31657 -2.17079 5679 ft 246 kts 186°
2026-05-06 09:21 53.29895 -2.17387 6105 ft 259 kts 187°
2026-05-06 09:21 53.28089 -2.17700 6471 ft 263 kts 187°
2026-05-06 09:22 53.26267 -2.18012 6818 ft 264 kts 186°
2026-05-06 09:22 53.24435 -2.18311 7176 ft 267 kts 186°
2026-05-06 09:22 53.22541 -2.18614 7581 ft 278 kts 186°
2026-05-06 09:22 53.20610 -2.18920 7961 ft 279 kts 186°
2026-05-06 09:23 53.18681 -2.19222 8347 ft 279 kts 186°
2026-05-06 09:23 53.16750 -2.19521 8736 ft 279 kts 185°
2026-05-06 09:23 53.14834 -2.19092 9109 ft 280 kts 161°
2026-05-06 09:23 53.13010 -2.17950 9532 ft 281 kts 159°
2026-05-06 09:24 53.11186 -2.16754 9942 ft 286 kts 159°
2026-05-06 09:24 53.09273 -2.15504 10341 ft 304 kts 159°
2026-05-06 09:24 53.07247 -2.14197 10741 ft 321 kts 159°
2026-05-06 09:24 53.05102 -2.12831 11146 ft 338 kts 160°
2026-05-06 09:25 53.02856 -2.11416 11567 ft 353 kts 160°
2026-05-06 09:25 53.00513 -2.09953 11992 ft 366 kts 160°
2026-05-06 09:25 52.98099 -2.08453 12404 ft 374 kts 160°
2026-05-06 09:25 52.95661 -2.06946 12818 ft 374 kts 160°
2026-05-06 09:26 52.93248 -2.05458 13226 ft 375 kts 161°
2026-05-06 09:26 52.90761 -2.03930 13667 ft 377 kts 161°
2026-05-06 09:26 52.88303 -2.02422 14069 ft 378 kts 161°
2026-05-06 09:26 52.85831 -2.00908 14457 ft 379 kts 161°
2026-05-06 09:27 52.83386 -1.99412 14841 ft 380 kts 161°
2026-05-06 09:27 52.80897 -1.97892 15239 ft 382 kts 161°
2026-05-06 09:27 52.78366 -1.96348 15648 ft 384 kts 161°
2026-05-06 09:27 52.75889 -1.94839 16047 ft 385 kts 161°
2026-05-06 09:28 52.73377 -1.93311 16461 ft 387 kts 161°
2026-05-06 09:28 52.70801 -1.91745 16896 ft 389 kts 161°
2026-05-06 09:28 52.68292 -1.90222 17298 ft 391 kts 161°
2026-05-06 09:28 52.65728 -1.88668 17733 ft 393 kts 161°
2026-05-06 09:29 52.63157 -1.87112 18163 ft 396 kts 161°
2026-05-06 09:29 52.60560 -1.85541 18574 ft 398 kts 161°
2026-05-06 09:29 52.57953 -1.83967 18955 ft 401 kts 162°
2026-05-06 09:29 52.55300 -1.82368 19038 ft 409 kts 162°
2026-05-06 09:30 52.52629 -1.80760 19040 ft 408 kts 161°
2026-05-06 09:30 52.49971 -1.79159 19043 ft 405 kts 161°
2026-05-06 09:30 52.47333 -1.77573 19058 ft 405 kts 162°
2026-05-06 09:30 52.44681 -1.75981 19058 ft 406 kts 161°
2026-05-06 09:31 52.42020 -1.74386 19047 ft 406 kts 162°
2026-05-06 09:31 52.39365 -1.72797 18916 ft 407 kts 161°
2026-05-06 09:31 52.36714 -1.71213 18746 ft 405 kts 161°
2026-05-06 09:31 52.34071 -1.69634 18587 ft 403 kts 161°
2026-05-06 09:32 52.31438 -1.68064 18431 ft 403 kts 161°
2026-05-06 09:32 52.28812 -1.66501 18260 ft 402 kts 161°
2026-05-06 09:32 52.26213 -1.64955 18044 ft 402 kts 161°
2026-05-06 09:32 52.23588 -1.63396 17869 ft 402 kts 161°
2026-05-06 09:33 52.20960 -1.61837 17685 ft 401 kts 161°
2026-05-06 09:33 52.18335 -1.60282 17486 ft 401 kts 161°
2026-05-06 09:33 52.15712 -1.58730 17282 ft 401 kts 161°
2026-05-06 09:33 52.13094 -1.57182 17077 ft 400 kts 161°
2026-05-06 09:34 52.10487 -1.55643 16883 ft 398 kts 161°
2026-05-06 09:34 52.07876 -1.54104 16679 ft 397 kts 161°
2026-05-06 09:34 52.05286 -1.52579 16493 ft 395 kts 161°
2026-05-06 09:34 52.02713 -1.51065 16295 ft 393 kts 161°
2026-05-06 09:35 52.00144 -1.49556 16125 ft 392 kts 161°
2026-05-06 09:35 51.97584 -1.48055 15923 ft 391 kts 161°
2026-05-06 09:35 51.95030 -1.46559 15728 ft 389 kts 161°
2026-05-06 09:35 51.92486 -1.45069 15540 ft 388 kts 161°
2026-05-06 09:36 51.89953 -1.43588 15351 ft 387 kts 161°
2026-05-06 09:36 51.87422 -1.42111 15165 ft 386 kts 161°
2026-05-06 09:36 51.84886 -1.40631 15064 ft 387 kts 161°
2026-05-06 09:36 51.82366 -1.39154 15023 ft 384 kts 160°
2026-05-06 09:37 51.79987 -1.37238 15021 ft 382 kts 149°
2026-05-06 09:37 51.77737 -1.34949 15028 ft 382 kts 148°
2026-05-06 09:37 51.75498 -1.32614 15031 ft 386 kts 148°
2026-05-06 09:37 51.73227 -1.30245 15031 ft 390 kts 148°
2026-05-06 09:38 51.70953 -1.27890 15014 ft 384 kts 148°
2026-05-06 09:38 51.68744 -1.25621 15002 ft 370 kts 148°
2026-05-06 09:38 51.66604 -1.23438 15004 ft 360 kts 148°
2026-05-06 09:38 51.64482 -1.21285 15015 ft 360 kts 148°
2026-05-06 09:39 51.62390 -1.19170 15023 ft 360 kts 148°
2026-05-06 09:39 51.60273 -1.17034 15025 ft 360 kts 149°
2026-05-06 09:39 51.58148 -1.14893 15028 ft 360 kts 148°
2026-05-06 09:39 51.56027 -1.12759 15022 ft 358 kts 149°
2026-05-06 09:40 51.53917 -1.10639 14817 ft 359 kts 149°
2026-05-06 09:40 51.51773 -1.08487 14568 ft 359 kts 148°
2026-05-06 09:40 51.47581 -1.04285 14109 ft 355 kts 148°
2026-05-06 09:41 51.45493 -1.02196 14039 ft 354 kts 149°
2026-05-06 09:41 51.43261 -1.00614 14004 ft 351 kts 168°
2026-05-06 09:41 51.40851 -1.00447 13993 ft 345 kts 191°
2026-05-06 09:41 51.38527 -1.01395 14003 ft 347 kts 199°
2026-05-06 09:42 51.36230 -1.02597 13993 ft 347 kts 200°
2026-05-06 09:42 51.33937 -1.03849 13688 ft 345 kts 200°
2026-05-06 09:42 51.31734 -1.05038 13317 ft 331 kts 197°
2026-05-06 09:42 51.29466 -1.05323 12931 ft 321 kts 172°
2026-05-06 09:43 51.27404 -1.04176 12539 ft 311 kts 147°
2026-05-06 09:43 51.25730 -1.02060 12104 ft 303 kts 137°
2026-05-06 09:43 51.24195 -0.99792 11654 ft 298 kts 136°
2026-05-06 09:43 51.22703 -0.97550 11229 ft 293 kts 136°
2026-05-06 09:44 51.21232 -0.95335 10802 ft 288 kts 135°
2026-05-06 09:44 51.19783 -0.93160 10385 ft 284 kts 135°
2026-05-06 09:44 51.18349 -0.91012 9967 ft 281 kts 135°
2026-05-06 09:44 51.16929 -0.88893 9519 ft 278 kts 135°
2026-05-06 09:45 51.15522 -0.86796 9063 ft 275 kts 135°
2026-05-06 09:45 51.14176 -0.84666 8606 ft 272 kts 124°
2026-05-06 09:45 51.13425 -0.81966 8169 ft 264 kts 103°
2026-05-06 09:45 51.12967 -0.79150 7694 ft 264 kts 101°
2026-05-06 09:46 51.12542 -0.76299 7166 ft 265 kts 98°
2026-05-06 09:46 51.12330 -0.73740 6688 ft 267 kts 92°
2026-05-06 09:46 51.12188 -0.70811 6303 ft 263 kts 91°
2026-05-06 09:46 51.12049 -0.67938 5931 ft 258 kts 91°
2026-05-06 09:47 51.11895 -0.65122 5598 ft 252 kts 92°
2026-05-06 09:47 51.11737 -0.62503 5318 ft 241 kts 92°
2026-05-06 09:47 51.11572 -0.59908 5011 ft 230 kts 91°
2026-05-06 09:47 51.11408 -0.57434 4711 ft 219 kts 91°
2026-05-06 09:48 51.11249 -0.55109 4423 ft 205 kts 91°
2026-05-06 09:48 51.11099 -0.52934 4154 ft 191 kts 91°
2026-05-06 09:48 51.10957 -0.50884 3960 ft 184 kts 90°
2026-05-06 09:48 51.10844 -0.49139 3718 ft 173 kts 86°
2026-05-06 09:49 51.10962 -0.47332 3543 ft 162 kts 73°
2026-05-06 09:49 51.11163 -0.45748 3346 ft 162 kts 72°
2026-05-06 09:49 51.11398 -0.44004 3141 ft 158 kts 72°
2026-05-06 09:49 51.11627 -0.42308 2926 ft 157 kts 72°
2026-05-06 09:50 51.11858 -0.40612 2715 ft 156 kts 73°
2026-05-06 09:50 51.12078 -0.38975 2504 ft 146 kts 72°
2026-05-06 09:50 51.12285 -0.37450 2304 ft 137 kts 72°
2026-05-06 09:50 51.12487 -0.35997 2161 ft 139 kts 73°
2026-05-06 09:51 51.12693 -0.34486 1955 ft 137 kts 72°
2026-05-06 09:51 51.12899 -0.32990 1780 ft 140 kts 72°
2026-05-06 09:51 51.13103 -0.31496 1595 ft 141 kts 71°
2026-05-06 09:51 51.13309 -0.29979 1420 ft 140 kts 73°
2026-05-06 09:52 51.13507 -0.28471 1221 ft 138 kts 71°
2026-05-06 09:52 51.13719 -0.26982 1045 ft 138 kts 71°
2026-05-06 09:52 51.13924 -0.25495 853 ft 136 kts 73°
2026-05-06 09:52 51.14124 -0.24031 668 ft 136 kts 71°
2026-05-06 09:53 51.14328 -0.22567 527 ft 138 kts 75°
2026-05-06 09:53 51.14535 -0.21064 373 ft 139 kts 74°
2026-05-06 09:53 51.14750 -0.19666 210 ft 120 kts 78°
2026-05-06 09:53 51.14856 -0.18776 212 ft 46 kts 78°
2026-05-06 09:54 51.14972 -0.18453 210 ft 0 kts 51°
2026-05-06 09:54 51.14975 -0.18449 209 ft 2 kts 51°
2026-05-06 09:55 51.14988 -0.18422 208 ft 3 kts 51°
2026-05-06 09:55 51.15001 -0.18395 209 ft 3 kts 52°
2026-05-06 09:55 51.15014 -0.18369 214 ft 3 kts 52°
2026-05-06 09:55 51.15027 -0.18344 205 ft 3 kts 52°
2026-05-06 09:56 51.15037 -0.18322 208 ft 0 kts 51°
2026-05-06 09:56 51.15092 -0.18197 208 ft 36 kts 62°
2026-05-06 09:56 51.15150 -0.17836 204 ft 33 kts 76°
2026-05-06 09:57 51.15203 -0.17500 207 ft 30 kts 79°
2026-05-06 09:57 51.15234 -0.17369 208 ft 0 kts 43°
2026-05-06 09:57 51.15235 -0.17367 207 ft 0 kts 43°
2026-05-06 09:57 51.15238 -0.17363 206 ft 1 kts 43°
2026-05-06 09:58 51.15242 -0.17357 215 ft 1 kts 41°
2026-05-06 09:58 51.15244 -0.17348 215 ft 1 kts 67°
2026-05-06 09:58 51.15252 -0.17283 204 ft 14 kts 81°
2026-05-06 09:58 51.15269 -0.17081 208 ft 19 kts 82°
2026-05-06 09:59 51.15296 -0.16873 204 ft 19 kts 77°
2026-05-06 09:59 51.15301 -0.16701 213 ft 15 kts 124°
2026-05-06 09:59 51.15293 -0.16547 208 ft 14 kts 79°
2026-05-06 09:59 51.15310 -0.16396 206 ft 13 kts 79°
2026-05-06 10:00 51.15343 -0.16273 211 ft 11 kts 22°
2026-05-06 10:00 51.15372 -0.16279 207 ft 0 kts 355°